Regional Weather Roundup
Issued by NWS

Home | Current Version | Previous Version | Graphics & Text | Print | Product List | Glossary Off
Versions: 1 2 3 4 5 6 7 8 9 10 11 12 13 14 15 16 17 18 19 20 21 22 23 24 25 26 27 28 29 30 31 32 33 34 35 36 37 38 39 40 41 42 43 44 45 46 47 48 49 50

474
ASUS43 KDMX 271903
RWRIA

WEATHER ROUNDUP FOR IOWA
NATIONAL WEATHER SERVICE DES MOINES IA
200 PM CDT TUE SEP 27 2016

NOTE: "FAIR" INDICATES FEW OR NO CLOUDS BELOW 12,000 FEET WITH NO
SIGNIFICANT WEATHER AND/OR OBSTRUCTIONS TO VISIBILITY.

* - THESE STATIONS ARE NOT NWS STATIONS...THUS NOT UNDER NWS
QUALITY CONTROL.  THEY ALSO DO NOT REPORT WEATHER SUCH
AS PRECIPITATION OR FOG.

IAZ001>003-012>014-020>022-031>034-043>046-272000-
   NORTHWEST IOWA

CITY           SKY/WX    TMP DP  RH WIND       PRES   REMARKS
CARROLL *      SUNNY     73  43  33 W17       29.90F
CHEROKEE *     SUNNY     70  42  36 NW10G25   29.90F
DENISON *      SUNNY     73  41  31 W16G24    29.90F
LE MARS *      SUNNY     72  43  35 W16G25    29.92F
ORANGE CITY *  SUNNY     72  43  35 NW18      29.91F
SHELDON *      SUNNY     70  39  32 W16G23    29.89F
SIOUX CITY     SUNNY     75  44  33 NW16G22   29.92F
SPENCER        SUNNY     71  40  32 NW20G31   29.88F
STORM LAKE *   SUNNY     72  41  33 W15G24    29.90F
$$

IAZ055>058-069>071-079>083-090>094-272000-
   SOUTHWEST IOWA

CITY           SKY/WX    TMP DP  RH WIND       PRES   REMARKS
ATLANTIC *     SUNNY     73  39  29 NW15G22   29.92F
AUDUBON *      SUNNY     72  37  28 W7G16     29.93F
CLARINDA *       N/A     75  45  33 MISG      29.95F
COUNCIL BLFS * SUNNY     75  43  31 NW12G18   29.94F
CRESTON *      SUNNY     73  43  33 W16       29.93F
HARLAN  *      SUNNY     73  39  29 NW13G22   29.96F
LAMONI         SUNNY     75  43  31 NW15      29.92F
RED OAK *      SUNNY     77  43  29 NW15      29.94F
SHENANDOAH *   SUNNY     75  43  31 NW9G18    29.95F
$$

IAZ047>049-059>061-072>074-084-272000-
   CENTRAL IOWA

CITY           SKY/WX    TMP DP  RH WIND       PRES   REMARKS
AMES           SUNNY     72  41  32 W17G25    29.87F
ANKENY *         N/A    N/A N/A N/A MISG        N/A
BOONE *        SUNNY     72  41  33 NW15G23   29.87F
CHARITON *       N/A     73  39  29 W14G20    29.89F
DES MOINES     MOSUNNY   75  40  28 NW13G24   29.88F
GRINNELL*      SUNNY     71  36  28 W15G24    29.87F
KNOXVILLE *    SUNNY     73  41  31 NW15G22   29.87F
MARSHALLTOWN   SUNNY     70  38  31 W23G29    29.84F
NEWTON *       SUNNY     72  37  28 W16G24    29.86F
PELLA *        SUNNY     72  38  29 W15G24    29.89F
PERRY *          N/A     74  38  26 NW15G24   29.89F
$$

IAZ004>006-015-016-023>025-035-036-272000-
   NORTH CENTRAL IOWA

CITY           SKY/WX    TMP DP  RH WIND       PRES   REMARKS
ALGONA *       SUNNY     70  36  28 W17G29    29.86F
CLARION *      SUNNY     70  36  28 NW18G28   29.85F
ESTHERVILLE    SUNNY     69  33  26 NW20G28   29.85F
FORT DODGE *   SUNNY     72  43  35 W14G21    29.87F
MASON CITY     SUNNY     66  34  30 NW24G31   29.85F
FOREST CITY *    N/A     68  32  26 NW16G23   29.84F
WEBSTER CITY * SUNNY     72  37  28 W18G25    29.84F
IOWA FALLS *     N/A     71  33  24 W18G26    29.86F
$$

IAZ007>011-017>019-026>030-037>042-050>054-066-272000-
   NORTHEAST IOWA

CITY           SKY/WX    TMP DP  RH WIND       PRES   REMARKS
CEDAR RAPIDS   SUNNY     69  39  33 W20G26    29.82F
CHARLES CITY * SUNNY     68  30  24 W15G26    29.82F
CLINTON *      SUNNY     70  34  26 W18G28    29.81F
DECORAH *      MOSUNNY   64  36  34 NW18G30   29.77F
DUBUQUE        SUNNY     66  34  30 W21G29    29.79F
MONTICELLO *   SUNNY     70  32  24 W16G26    29.80F
OELWEIN *      SUNNY     66  32  28 W21G29    29.81F
WATERLOO       SUNNY     68  31  25 W16G25    29.81F
$$

IAZ064-065-067-068-078-272000-
   EAST CENTRAL IOWA

CITY           SKY/WX    TMP DP  RH WIND       PRES   REMARKS
DAVENPORT      SUNNY     71  31  22 W18G26    29.82F
IOWA CITY      SUNNY     72  38  29 NW16G25   29.84F
MT. PLEASANT * SUNNY     76  35  22 W16G23    29.86F
MUSCATINE *    SUNNY     73  34  23 W15G25    29.83F
QUAD CITIES    SUNNY     73  35  25 W16G25    29.81F
$$

IAZ062-063-075>077-085>089-095>099-272000-
   SOUTHEAST IOWA

CITY           SKY/WX    TMP DP  RH WIND       PRES   REMARKS
BURLINGTON     SUNNY     74  33  22 W15G24    29.85F
FAIRFIELD *    SUNNY     75  30  19 W18       29.86F
FORT MADISON *   N/A     75  34  22 W16G22    29.87F
KEOKUK *       SUNNY     75  36  23 NW17G23   29.86F
OSKALOOSA *      N/A     74  35  24 NW18G28   29.88F
CENTERVILLE *    N/A     75  37  25 W14G21    29.91F
OTTUMWA        SUNNY     74  34  23 W17G24    29.87F
WASHINGTON *     N/A    N/A N/A N/A MISG        N/A
$$

ABBREVIATIONS USED IN REMARKS
   TC - TEMPERATURES IN CELSIUS
  WCI - WIND CHILL INDEX
   HX - HEAT INDEX
  VSB - VISIBILITY
$$





USA.gov is the U.S. government's official web portal to all federal, state and local government web resources and services.